HST 1 20580U 90037B 24322.90569541 .00008116 00000-0 34538-3 0 9998 2 20580 28.4700 32.8909 0001696 268.8069 91.2330 15.21149232700690 ISS (ZARYA) 1 25544U 98067A 24323.23641665 .00015918 00000-0 28694-3 0 9993 2 25544 51.6394 272.1811 0007335 231.4765 128.5566 15.49919217482441 CXO 1 25867U 99040B 24323.87927738 .00000571 00000-0 00000-0 0 9998 2 25867 44.7074 141.5385 8725615 304.2436 359.8848 0.37806582 15144